Location: Huesca
(42.1318°N, 0.4078°W)
Time: 22:07:31
(UTC+02:00)

STRAND 1 - Visible Passes

Search period start: 22 April 2024 00:00
Search period end: 02 May 2024 00:00
Orbit: 764 x 779 km, 98.4° (Epoch: 21 April)

Date Brightness Start Highest point End Pass type
(mag) Time Alt. Az. Time Alt. Az. Time Alt. Az.
22 Apr ? 06:39:07 10° ESE 06:43:22 28° ENE 06:47:38 10° N visible
22 Apr ? 22:07:17 10° NNW 22:10:06 15° WNW 22:12:54 10° W visible
23 Apr ? 06:06:19 10° E 06:08:54 14° ENE 06:11:30 10° NNE visible
23 Apr ? 21:31:16 10° N 21:35:37 29° WNW 21:39:59 10° SW visible
25 Apr ? 06:33:53 10° ESE 06:37:57 25° ENE 06:42:03 10° NNE visible
25 Apr ? 22:01:33 10° NNW 22:04:42 17° WNW 22:07:51 10° W visible
26 Apr ? 06:01:23 10° E 06:03:31 13° ENE 06:05:39 10° NNE visible
26 Apr ? 21:25:41 10° N 21:30:11 32° WNW 21:34:42 10° SW visible
28 Apr ? 06:28:38 10° ESE 06:32:31 23° ENE 06:36:25 10° NNE visible
28 Apr ? 21:55:50 10° NNW 21:59:17 19° WNW 22:02:43 10° WSW visible
29 Apr ? 05:56:33 10° ENE 05:58:06 11° ENE 05:59:38 10° NE visible
29 Apr ? 21:20:05 10° N 21:24:44 36° WNW 21:29:22 10° SW visible
30 Apr ? 22:27:46 10° NW 22:28:13 10° WNW 22:28:41 10° WNW visible
01 May ? 06:23:24 10° ESE 06:27:03 20° ENE 06:30:44 10° NNE visible
01 May ? 21:50:08 10° NNW 21:53:49 21° WNW 21:57:32 10° WSW visible
